Wind_Speed
71 71 72 72 72 72 72 72 72 71 72 72 73 74 75 76 77 78 80 80 81 82 83 83 83 83 83 84 84 85 87 88 90 91 90 87 84 81 75 70 68 68
72 72 72 73 73 73 72 72 72 72 72 73 74 74 75 76 78 79 80 81 82 83 83 83 83 83 84 84 85 86 87 89 90 90 87 84 81 76 70 67 66 66
72 72 73 73 73 73 72 72 72 72 73 73 74 75 75 76 78 79 80 81 82 83 83 84 84 84 84 84 85 86 88 89 89 87 84 80 77 71 67 65 65 64
72 72 73 73 73 73 73 72 72 72 73 74 75 75 76 77 78 79 80 82 83 83 84 84 84 84 84 84 85 87 88 89 87 85 81 77 73 67 64 64 63 62
72 72 73 73 73 73 72 72 72 73 73 74 75 76 76 77 79 80 81 82 83 84 84 84 84 84 84 85 86 87 88 87 86 82 78 74 69 64 63 62 60 58
72 72 72 73 73 72 72 72 72 73 74 75 75 76 77 78 79 80 82 83 84 84 84 84 85 85 85 86 86 87 87 86 83 79 75 71 65 62 61 60 57 55
72 72 72 72 72 72 72 72 72 73 74 75 75 76 77 78 79 81 82 83 84 84 84 85 85 85 85 86 87 87 86 84 81 76 72 67 62 60 59 57 54 52
72 72 72 72 72 72 71 71 72 73 74 75 75 76 77 78 80 81 83 84 84 84 85 85 85 85 86 86 87 87 85 82 78 74 70 65 60 58 56 54 51 49
71 72 72 72 72 71 71 71 72 73 74 75 76 76 77 78 80 82 83 84 84 85 85 85 86 86 86 87 87 86 83 80 76 71 67 62 58 56 54 52 49 46
71 72 72 71 71 71 71 72 72 73 75 75 76 77 78 79 81 83 84 84 84 85 85 86 86 86 87 87 86 85 81 78 73 69 65 60 56 54 52 49 47 44
71 71 71 71 70 70 71 72 72 73 75 75 76 77 78 80 82 83 84 84 84 85 86 86 87 87 87 87 86 84 80 75 71 67 63 59 55 52 50 47 45 43
70 70 70 70 70 70 71 72 72 74 75 76 76 77 78 81 82 83 84 84 85 86 87 87 87 87 88 87 85 82 78 73 68 64 61 57 53 50 48 46 44 42
70 70 69 69 70 71 71 72 73 74 75 76 77 77 79 81 83 83 84 84 85 86 87 87 88 88 88 86 84 80 76 71 66 62 59 55 52 49 47 45 43 41
69 69 69 69 70 71 71 71 73 74 75 76 77 78 80 82 83 83 84 85 86 87 87 88 88 88 87 85 82 78 74 69 64 61 56 53 50 48 46 44 42 41
68 68 68 69 70 70 70 71 73 74 75 76 77 79 81 82 83 84 84 85 86 87 87 88 88 88 86 84 80 76 72 67 62 59 55 51 49 47 44 43 41 40
67 67 68 69 70 70 70 72 73 74 75 76 78 80 82 83 83 84 85 86 87 87 88 88 88 87 85 82 78 74 70 65 60 57 53 50 48 46 43 41 40 40
66 67 68 69 69 69 70 72 73 74 75 77 79 81 82 83 84 85 86 87 87 88 88 88 88 86 83 79 75 72 68 64 59 55 51 48 46 45 42 40 40 40
66 67 68 68 68 69 71 72 73 74 76 78 80 81 83 83 84 85 87 87 88 88 89 88 87 83 80 76 72 69 66 64 60 54 49 45 44 43 41 40 39 39
66 67 67 67 68 69 71 72 73 75 77 79 80 82 83 84 85 86 87 88 89 89 89 88 85 81 77 73 69 66 64 62 59 53 48 44 42 41 40 39 39 39
66 67 67 67 68 69 71 73 74 75 77 79 81 83 84 85 86 87 88 89 89 89 89 86 82 78 74 70 66 63 61 60 57 52 47 44 42 41 40 39 39 39
66 66 66 67 68 70 71 73 74 76 78 80 82 83 84 85 86 88 88 89 90 89 88 84 79 74 71 67 64 61 59 57 54 50 46 43 41 41 40 39 38 38
66 66 66 67 69 70 71 73 75 77 79 81 82 83 84 86 87 88 89 89 89 88 85 80 75 71 68 64 61 59 57 55 51 47 45 43 41 41 40 39 38 39
65 65 66 68 69 70 72 73 76 78 80 82 83 84 85 86 87 88 89 89 88 86 82 77 71 67 64 61 58 56 54 52 49 46 44 42 41 40 40 39 39 39
65 66 67 68 69 70 72 74 77 79 81 82 83 84 85 87 88 89 89 89 86 83 78 73 67 63 61 58 55 53 52 50 48 45 43 41 40 40 40 39 39 38
65 66 67 68 69 71 73 76 78 80 81 83 84 85 86 87 88 89 89 87 83 78 73 69 64 59 57 55 52 50 49 49 47 44 42 41 40 39 39 39 38 38
65 66 67 68 70 72 75 77 79 81 82 83 85 86 87 87 89 89 88 84 78 73 69 65 61 56 53 51 48 47 47 47 46 43 42 41 39 38 38 37 37 38
Wind_Direction
301 301 301 301 301 301 302 302 303 303 303 304 305 306 307 308 308 308 309 309 310 309 309 309 308 308 306 305 305 305 306 307 308 308 307 305 303 301 297 293 290 289
301 301 301 301 301 302 303 303 304 304 304 305 306 307 308 308 308 309 309 310 310 310 310 309 309 308 307 306 306 306 307 309 309 309 307 305 303 300 295 292 291 290
302 302 302 302 302 303 303 304 304 305 305 306 307 307 308 308 308 309 310 310 310 311 310 310 309 309 308 307 307 308 309 310 310 309 307 305 303 298 294 292 292 291
302 302 302 302 303 303 304 304 305 305 306 307 307 308 308 308 309 309 310 310 311 311 311 311 310 309 309 308 308 309 310 311 311 309 307 305 301 296 293 293 293 291
303 303 303 303 303 304 304 304 305 306 306 307 308 308 308 309 309 310 310 311 311 312 311 311 311 310 310 309 310 311 311 311 311 309 306 304 300 295 293 293 293 292
303 303 303 303 303 304 304 305 305 306 307 308 308 309 309 309 310 310 311 312 312 312 312 311 311 311 310 310 311 312 312 312 310 308 305 303 298 293 293 293 293 292
304 303 303 303 303 303 304 305 306 306 307 308 308 308 309 309 310 311 311 312 312 312 312 312 312 311 311 311 312 312 312 311 310 307 304 301 296 292 293 293 292 292
304 303 303 303 303 303 304 305 306 306 307 308 308 308 309 310 310 311 312 312 313 313 312 312 312 311 311 312 312 313 312 311 309 305 303 300 294 291 292 292 292 292
304 303 303 303 303 304 305 306 306 307 308 308 309 309 309 310 311 312 312 313 313 313 313 312 312 312 312 312 313 313 312 310 307 304 302 298 292 290 291 291 291 292
303 303 303 303 304 304 305 306 306 307 308 308 309 309 310 311 311 312 313 313 313 313 313 312 312 312 312 313 313 313 311 309 306 303 300 296 289 288 290 290 290 290
303 303 303 304 304 305 305 306 306 307 308 309 309 310 310 311 312 313 313 313 313 313 313 313 313 313 313 313 313 312 311 308 304 301 299 293 287 286 288 288 288 288
303 303 304 304 304 305 305 306 306 308 308 309 310 310 311 312 312 313 313 313 313 313 313 313 313 313 313 313 313 312 310 307 303 300 297 291 285 284 286 286 286 286
304 304 304 304 304 305 305 306 307 308 309 309 310 311 311 312 313 313 313 313 313 313 313 313 313 313 313 313 312 311 308 305 302 299 296 289 282 281 283 283 284 285
304 304 304 304 304 305 305 306 308 308 309 310 310 311 312 312 313 313 313 312 312 313 313 313 313 314 313 312 311 310 307 304 301 298 294 287 279 278 281 282 282 282
304 304 304 304 304 305 306 307 308 309 310 310 311 312 312 313 313 313 313 313 313 313 313 314 314 314 313 312 310 308 306 303 300 297 293 285 277 275 279 280 281 281
304 304 304 304 305 306 307 308 309 310 310 311 311 312 313 313 313 313 312 313 313 313 314 314 314 314 312 311 309 307 305 302 299 296 292 284 275 274 276 278 278 278
304 304 304 305 306 307 308 309 310 310 311 311 312 313 313 313 313 313 313 313 313 314 314 314 314 313 312 310 308 306 303 301 298 295 291 282 274 271 274 276 276 276
304 304 305 306 307 308 309 310 310 311 311 312 313 313 313 313 313 313 313 314 314 314 314 315 314 313 311 309 307 305 302 301 299 296 291 282 272 268 270 272 273 273
305 305 306 307 308 309 310 310 311 311 312 312 313 313 313 313 313 314 314 314 314 315 315 315 314 312 310 308 306 304 302 300 299 296 292 283 273 266 266 269 269 271
305 306 308 309 309 310 311 311 311 312 312 313 313 313 313 313 314 314 314 315 315 315 315 315 313 311 309 307 305 303 301 299 298 296 291 284 274 266 265 267 268 270
307 308 309 310 310 311 311 312 312 312 313 313 313 313 314 314 314 314 315 315 315 315 315 315 313 310 307 306 304 302 300 298 297 295 290 284 275 267 265 267 268 270
308 309 310 311 311 311 312 312 312 313 313 313 313 314 314 314 315 315 315 315 315 315 315 314 312 309 306 305 303 301 299 298 296 293 289 284 276 268 265 267 269 271
309 310 311 312 312 312 312 313 313 313 313 313 314 314 315 315 315 315 315 316 316 315 314 313 311 308 306 304 303 300 299 297 295 292 289 284 277 268 265 266 269 272
310 311 312 312 312 313 313 313 313 313 313 314 314 315 315 315 316 316 316 316 316 315 314 312 310 307 305 303 302 300 297 295 293 292 289 284 277 268 265 266 269 272
311 312 313 313 313 313 313 314 314 314 314 314 315 315 316 316 316 316 316 317 316 315 313 311 309 307 305 303 301 298 296 294 293 292 289 285 277 269 265 266 269 273
312 313 313 313 313 314 314 314 314 314 315 315 316 316 316 317 317 317 317 317 316 314 312 310 309 307 305 302 300 297 294 293 293 292 289 285 277 270 265 266 269 272
Height
5520 5516 5512 5508 5504 5499 5495 5491 5486 5482 5477 5472 5467 5462 5458 5453 5448 5443 5438 5433 5427 5422 5416 5410 5405 5398 5392 5386 5380 5375 5369 5362 5355 5348 5340 5333 5326 5320 5315 5311 5307 5304
5511 5507 5503 5499 5494 5490 5486 5481 5477 5472 5467 5463 5458 5453 5449 5444 5438 5433 5428 5423 5417 5412 5406 5400 5394 5388 5381 5375 5369 5363 5357 5350 5343 5335 5327 5321 5314 5309 5304 5300 5297 5294
5502 5498 5494 5489 5485 5481 5476 5472 5467 5463 5458 5453 5448 5444 5440 5434 5429 5424 5418 5413 5407 5402 5395 5389 5383 5377 5370 5364 5358 5352 5345 5338 5331 5323 5316 5309 5303 5298 5294 5291 5287 5284
5493 5489 5484 5480 5476 5471 5467 5463 5458 5453 5449 5444 5439 5435 5430 5425 5420 5414 5409 5403 5397 5392 5385 5379 5372 5366 5359 5353 5346 5340 5333 5326 5319 5311 5305 5299 5293 5288 5284 5281 5278 5275
5485 5480 5476 5471 5467 5462 5458 5454 5449 5444 5440 5435 5430 5425 5420 5415 5410 5404 5399 5393 5387 5381 5375 5368 5361 5355 5348 5342 5335 5329 5322 5315 5308 5300 5294 5289 5283 5279 5275 5272 5269 5266
5476 5471 5467 5462 5458 5454 5450 5445 5440 5435 5430 5426 5421 5416 5411 5406 5400 5394 5389 5383 5377 5370 5364 5357 5351 5344 5337 5330 5324 5318 5310 5304 5297 5290 5284 5279 5274 5270 5267 5264 5261 5258
5467 5463 5458 5454 5449 5445 5441 5437 5432 5427 5422 5417 5412 5407 5401 5396 5390 5384 5378 5373 5367 5360 5353 5347 5340 5334 5327 5320 5313 5306 5299 5292 5286 5280 5274 5270 5266 5262 5259 5255 5253 5251
5459 5454 5449 5445 5441 5437 5432 5428 5422 5418 5413 5408 5404 5398 5392 5387 5381 5375 5368 5362 5356 5350 5343 5336 5330 5323 5316 5310 5303 5296 5289 5282 5275 5270 5265 5261 5257 5254 5251 5248 5246 5244
5450 5445 5441 5436 5432 5428 5423 5418 5413 5409 5404 5399 5394 5389 5383 5377 5371 5365 5358 5352 5345 5339 5332 5326 5319 5313 5306 5299 5292 5285 5278 5272 5265 5260 5255 5252 5249 5247 5244 5241 5239 5237
5442 5437 5432 5428 5423 5419 5414 5409 5405 5400 5395 5390 5385 5379 5373 5367 5361 5354 5348 5342 5335 5328 5322 5315 5308 5302 5295 5288 5281 5274 5268 5262 5256 5251 5246 5243 5241 5239 5236 5234 5232 5230
5433 5428 5424 5419 5415 5410 5406 5401 5396 5391 5386 5381 5375 5370 5364 5357 5351 5344 5337 5331 5325 5318 5311 5305 5298 5291 5284 5277 5270 5264 5258 5252 5246 5242 5238 5234 5233 5231 5229 5227 5225 5223
5424 5419 5415 5410 5406 5401 5397 5392 5387 5382 5377 5372 5366 5360 5354 5347 5341 5334 5327 5321 5314 5307 5301 5294 5287 5280 5273 5266 5260 5253 5248 5242 5237 5233 5229 5226 5224 5223 5221 5219 5218 5216
5415 5411 5406 5402 5397 5393 5388 5384 5379 5374 5368 5362 5357 5351 5344 5338 5331 5325 5318 5311 5305 5298 5290 5283 5276 5269 5262 5255 5249 5243 5237 5232 5227 5223 5221 5218 5216 5215 5214 5212 5211 5209
5407 5402 5398 5393 5389 5385 5380 5375 5370 5364 5359 5353 5347 5341 5335 5328 5322 5315 5309 5302 5295 5288 5280 5273 5265 5258 5250 5243 5238 5232 5226 5222 5218 5214 5212 5209 5208 5207 5206 5205 5204 5203
5399 5394 5390 5385 5381 5376 5371 5366 5361 5355 5349 5343 5337 5331 5325 5318 5311 5305 5298 5292 5284 5277 5270 5262 5255 5247 5239 5232 5226 5221 5216 5211 5208 5205 5202 5201 5200 5199 5199 5198 5197 5196
5391 5386 5382 5377 5372 5367 5362 5357 5351 5345 5340 5334 5328 5321 5315 5308 5302 5295 5288 5281 5274 5267 5260 5252 5244 5236 5228 5222 5215 5210 5205 5202 5199 5196 5193 5192 5191 5191 5192 5191 5190 5189
5383 5378 5373 5369 5364 5359 5353 5348 5342 5336 5330 5324 5318 5312 5305 5298 5292 5285 5278 5270 5263 5257 5249 5241 5233 5225 5217 5211 5205 5199 5193 5190 5189 5188 5185 5184 5184 5184 5184 5184 5183 5181
5375 5370 5365 5360 5355 5350 5344 5339 5333 5327 5321 5315 5309 5302 5295 5289 5281 5274 5267 5259 5252 5246 5238 5230 5223 5214 5206 5201 5195 5189 5183 5179 5177 5177 5177 5176 5176 5176 5176 5176 5175 5174
5366 5361 5357 5352 5347 5341 5336 5330 5324 5318 5312 5306 5299 5292 5286 5279 5271 5264 5256 5248 5241 5234 5228 5220 5212 5203 5196 5190 5185 5180 5175 5170 5167 5167 5167 5167 5167 5168 5169 5168 5168 5167
5357 5353 5349 5343 5338 5333 5327 5321 5315 5309 5303 5296 5290 5283 5276 5268 5261 5253 5246 5238 5230 5223 5217 5210 5202 5193 5186 5181 5176 5171 5166 5162 5159 5158 5158 5158 5158 5159 5160 5161 5160 5160
5349 5345 5340 5335 5330 5324 5318 5312 5306 5300 5294 5287 5280 5274 5266 5259 5251 5243 5236 5228 5220 5212 5206 5200 5192 5183 5176 5171 5167 5163 5158 5154 5152 5151 5150 5150 5150 5151 5152 5153 5152 5152
5341 5337 5332 5327 5322 5316 5310 5304 5297 5291 5285 5278 5271 5265 5257 5249 5241 5234 5226 5218 5210 5202 5195 5189 5182 5173 5166 5162 5158 5154 5150 5146 5145 5144 5142 5142 5142 5143 5144 5144 5145 5145
5333 5329 5324 5319 5313 5308 5302 5295 5289 5282 5275 5268 5262 5255 5248 5240 5232 5224 5216 5207 5200 5192 5184 5179 5173 5165 5158 5154 5150 5146 5142 5139 5137 5136 5136 5135 5135 5135 5136 5137 5137 5137
5325 5321 5316 5311 5305 5299 5293 5287 5280 5273 5266 5259 5252 5246 5238 5230 5222 5214 5206 5197 5189 5182 5174 5169 5165 5158 5150 5146 5142 5138 5134 5131 5130 5129 5129 5128 5127 5128 5129 5129 5130 5130
5317 5313 5308 5302 5297 5291 5284 5278 5271 5264 5257 5249 5242 5235 5228 5220 5212 5204 5196 5188 5179 5172 5165 5159 5155 5150 5144 5139 5135 5131 5126 5124 5123 5123 5122 5121 5120 5121 5122 5123 5124 5124
5310 5305 5300 5294 5288 5282 5276 5269 5262 5254 5247 5240 5232 5225 5218 5210 5202 5193 5186 5179 5170 5162 5156 5150 5145 5142 5137 5132 5128 5124 5120 5117 5116 5116 5115 5114 5114 5114 5116 5117 5117 5117